User: anonymous   Login
Location: Unspecified
(0.0000°N, 0.0000°E)
Time: 18:58:57
(UTC+00:00)
Language:

Transit 2A - Orbit

View from above orbital plane
View from above orbital plane
View from above satellite
View from above satellite

Ground track
Ground track

The orbit data is extracted from the following two-line orbital elements,

1    45U 60007A   17084.81405301 -.00000021 +00000-0 +21774-4 0  9993
2    45 066.6937 249.2509 0248284 094.3245 268.6266 14.33543062896789
Epoch (UTC): 25 March 2017 19:32:14
Eccentricity: 0.0248284
inclination: 66.6937°
perigee height: 602 km
apogee height: 957 km
right ascension of ascending node: 249.2509°
argument of perigee: 94.3245°
revolutions per day: 14.33543062
mean anomaly at epoch: 268.6266°
orbit number at epoch: 89678

The dashed part of the orbit path shows where the satellite is in the earth's shadow,  

DLR